Atari, India

11:04 PM IST on February 27, 2017 (GMT +0530)
Amritsar

Weather History for VIAR - June, 2013

Change the Weather History Date:

Sunday, June 23, 2013

  Actual Average Record
Temperature  
Mean Temperature 90 °F -  
Max Temperature 103 °F 95 °F 111 °F (2005)
Min Temperature 78 °F 79 °F 71 °F (2004)
Cooling Degree Days 26    
Growing Degree Days 40 (Base 50)    
Moisture  
Dew Point 77 °F    
Average Humidity 59    
Maximum Humidity 100    
Minimum Humidity 31    
Precipitation  
Precipitation 0.00 in - - ()
Sea Level Pressure  
Sea Level Pressure 29.41 in    
Wind  
Wind Speed 1 mph ()    
Max Wind Speed 9 mph    
Max Gust Speed -    
Visibility 2.8 miles    
Events      
Averages and records for this station are not official NWS values.
T = Trace of Precipitation, MM = Missing Value Source: Averaged Metar Reports

Daily Weather History Graph

Daily Weather History Graph

Search for Another Location

Airport or City:

Trip Planner

Search our weather history database for the weather conditions in past years. The results will help you decide how hot, cold, wet, or windy it might be!

Date:

Astronomy

Jun. 23, 2013 Rise Set
Actual Time 5:26 AM IST 7:39 PM IST
Civil Twilight 4:58 AM IST 8:07 PM IST
Nautical Twilight 4:23 AM IST 8:41 PM IST
Astronomical Twilight 3:46 AM IST 9:18 PM IST
Moon 7:30 PM IST (6/23) 5:09 AM IST (6/23)
Length of Visible Light 15h 09m
Length of Day
14h 12m
Full, 100% of the Moon is Illuminated
Jun 23
Full
Jun 23
Full
Jun 30
Last Quarter
Jul 8
New
Jul 16
First Quarter

Hourly Weather History & Observations

Time (IST) Temp. Heat Index Dew Point Humidity Pressure Visibility Wind Dir Wind Speed Gust Speed Precip Events Conditions
12:30 AM 87.8 °F 95.6 °F 73.4 °F 62% 29.44 in 3.1 mi Calm Calm - N/A   Haze
1:30 AM 86.0 °F 90.4 °F 69.8 °F 58% 29.44 in 3.1 mi Calm Calm - N/A   Haze
2:30 AM 83 °F - 68 °F 51% 29.36 in 2 mi Calm Calm - -   Haze
3:00 AM 87.8 °F 120.2 °F 87.8 °F 100% 29.42 in 2.5 mi Calm Calm - N/A   Haze
4:00 AM 89.6 °F 115.0 °F 84.2 °F 84% 29.42 in 2.5 mi Calm Calm - N/A   Haze
4:30 AM 87.8 °F 111.7 °F 84.2 °F 89% 29.42 in 2.5 mi Calm Calm - N/A   Haze
5:00 AM 87.8 °F 108.2 °F 82.4 °F 84% 29.42 in 2.5 mi Calm Calm - N/A   Haze
5:30 AM 79 °F - 66 °F 57% 29.41 in 2 mi Calm Calm - -   Haze
5:30 AM 87.8 °F 108.2 °F 82.4 °F 84% 29.44 in 2.5 mi Calm Calm - N/A   Haze
6:00 AM 87.8 °F 111.7 °F 84.2 °F 89% 29.44 in 2.5 mi Calm Calm - N/A   Haze
7:00 AM 80.6 °F 83.9 °F 69.8 °F 70% 29.44 in 2.5 mi Calm Calm - N/A   Haze
7:30 AM 82.4 °F 87.2 °F 71.6 °F 70% 29.44 in 2.5 mi Calm Calm - N/A   Haze
8:00 AM 91.4 °F 114.3 °F 82.4 °F 75% 29.47 in 2.5 mi Calm Calm - N/A   Haze
8:30 AM 90 °F - 80 °F 66% 29.42 in 2 mi SSW 3.5 mph - -   Haze
9:00 AM 91.4 °F 117.8 °F 84.2 °F 79% 29.47 in 2.5 mi WSW 4.6 mph - N/A   Haze
10:30 AM 95.0 °F 109.7 °F 77.0 °F 56% 29.47 in 2.5 mi Variable 4.6 mph - N/A   Haze
11:30 AM 99 °F - 77 °F 41% 29.41 in 2 mi 1.2 mph - -  
12:00 PM 96.8 °F 112.2 °F 77.0 °F 53% 29.47 in 3.7 mi Variable 1.2 mph - N/A   Unknown
12:30 PM 100.4 °F 116.5 °F 77.0 °F 47% 29.44 in 3.7 mi Variable 1.2 mph - N/A   Unknown
1:00 PM 102.2 °F 116.3 °F 75.2 °F 42% 29.44 in 3.7 mi Calm Calm - N/A   Unknown
1:30 PM 102.2 °F 116.3 °F 75.2 °F 42% 29.44 in 3.7 mi South 5.8 mph - N/A   Unknown
2:00 PM 102.2 °F 116.3 °F 75.2 °F 42% 29.44 in 3.7 mi South 6.9 mph - N/A   Unknown
2:30 PM 103 °F - 74 °F 31% 29.36 in 2 mi SSW 6.9 mph - -  
3:00 PM 100.4 °F 113.6 °F 75.2 °F 44% 29.42 in 3.7 mi South 9.2 mph - N/A   Unknown
3:30 PM 100.4 °F 113.6 °F 75.2 °F 44% 29.42 in 3.7 mi South 6.9 mph - N/A   Unknown
4:30 PM 102.2 °F 114.4 °F 73.4 °F 40% 29.39 in 3.7 mi SSW 9.2 mph - N/A   Unknown
5:00 PM 102.2 °F 116.3 °F 75.2 °F 42% 29.36 in 3.7 mi SW 9.2 mph - N/A   Unknown
5:30 PM 101 °F - 76 °F 35% 29.31 in 2 mi SW 8.1 mph - -  
7:00 PM 96.8 °F 112.2 °F 77.0 °F 53% 29.36 in 3.7 mi South 4.6 mph - N/A   Unknown
8:00 PM 95.0 °F 112.2 °F 78.8 °F 59% 29.36 in 3.1 mi Calm Calm - N/A   Haze
8:30 PM 95 °F - 78 °F 48% 29.31 in 2 mi Calm Calm - -   Haze
9:00 PM 95.0 °F 109.7 °F 77.0 °F 56% 29.39 in 2.5 mi Variable 2.3 mph - N/A   Haze
10:00 PM 91.4 °F 105.1 °F 77.0 °F 63% 29.39 in 2.5 mi Calm Calm - N/A   Haze
10:30 PM 91.4 °F 105.1 °F 77.0 °F 63% 29.39 in 2.5 mi Calm Calm - N/A   Haze
11:30 PM 89 °F - 76 °F 57% 29.34 in 2 mi Calm Calm - -   Haze
11:30 PM 89.6 °F 99.8 °F 75.2 °F 62% 29.39 in 2.5 mi Calm Calm - N/A   Haze